This is the latest recevied weather packets stored in our database for station/object DB0MW-13. If no packets are shown the sender has not sent any weather packets the latest 10 day(s).
| Time | Temp. | Humidity | Pressure | Rain* | Wind** | Luminosity | Snow |
|---|---|---|---|---|---|---|---|
| 1777164901 | 7.78° C | 71% | 1021.9 hPa | 0 mm | - | - | - |
| 1777164601 | 7.78° C | 71% | 1022.2 hPa | 0 mm | - | - | - |
| 1777164301 | 7.78° C | 71% | 1021.9 hPa | 0 mm | - | - | - |
| 1777164001 | 7.78° C | 70% | 1022 hPa | 0 mm | - | - | - |
| 1777163701 | 7.78° C | 67% | 1021.8 hPa | 0 mm | - | - | - |
| 1777163401 | 8.33° C | 67% | 1021.8 hPa | 0 mm | - | - | - |
| 1777163101 | 8.33° C | 67% | 1021.9 hPa | 0 mm | - | - | - |
| 1777162801 | 8.33° C | 68% | 1022.1 hPa | 0 mm | - | - | - |
| 1777162201 | 8.89° C | 67% | 1021.5 hPa | 0 mm | - | - | - |
| 1777161901 | 8.89° C | 65% | 1021.6 hPa | 0 mm | - | - | - |
| 1777161601 | 8.89° C | 60% | 1021.5 hPa | 0 mm | - | - | - |
| 1777161301 | 8.89° C | 62% | 1021.6 hPa | 0 mm | - | - | - |
| 1777160701 | 9.44° C | 63% | 1021.5 hPa | 0 mm | - | - | - |
| 1777160401 | 9.44° C | 62% | 1021.5 hPa | 0 mm | - | - | - |
| 1777160101 | 9.44° C | 59% | 1021.4 hPa | 0 mm | - | - | - |
| 1777159801 | 9.44° C | 56% | 1021.3 hPa | 0 mm | - | - | - |
| 1777159500 | 10° C | 56% | 1021.2 hPa | 0 mm | - | - | - |
| 1777159200 | 10° C | 54% | 1021.1 hPa | 0 mm | - | - | - |
| 1777158901 | 10.56° C | 54% | 1021.4 hPa | 0 mm | - | - | - |
| 1777158601 | 10.56° C | 51% | 1021.4 hPa | 0 mm | - | - | - |
| 1777158300 | 11.11° C | 52% | 1021.3 hPa | 0 mm | - | - | - |
| 1777158000 | 11.11° C | 52% | 1021.3 hPa | 0 mm | - | - | - |
| 1777157700 | 11.67° C | 50% | 1021.4 hPa | 0 mm | - | - | - |
| 1777157400 | 11.67° C | 50% | 1021.2 hPa | 0 mm | - | - | - |
| 1777157100 | 12.22° C | 49% | 1021.2 hPa | 0 mm | - | - | - |
* Rain latest hour (hover to see other rain measurements)
** Current wind speed in m/s (hover to see current wind gust speed)